Back to catalog

DELTA 1 DEB

AliveSSO
NORAD 21351·DEBRIS·🇺🇸 United States

Launched Jun 12, 1975 from Vandenberg Space Force Base

Loading…

Next Passes (next 24 hours)

TLE

FreshSource: Space-Track

Epoch: Sep 14, 2026, 13:48 UTC

1 21351U 75052BV  26257.57510742 -.00000002  00000-0  82611-4 0  9999
2 21351  99.8586  18.1451 0066170 104.4771 319.9696 13.31656040716100

Track DELTA 1 DEB in real time with AllMySat

Download on the App Store